Location: Aulnoy
(48.8410°N, 3.0967°E)
Time: 08:40:39
(UTC+00:00)

Cosmos 2221 - Pass Details

Date: 09 February 2023
Orbit: 589 x 611 km, 82.5° (Epoch: 23 March)

Event Time Altitude Azimuth Distance (km) Brightness Sun altitude
Rises 19:30:51 0° 352° (N) 2,879 6.2 -25.5°
Reaches altitude 10° 19:33:06 10° 355° (N) 1,974 5.3 -25.9°
Enters shadow 19:34:30 20° 359° (N) 1,428 4.5 -26.1°
